Total_Precipitation_Accumulation
0.61 0.63 0.75 0.54 0.44 0.45 0.47 0.55 0.54 0.46 0.46 0.48 0.46 0.43 0.40 0.41 0.45 0.52 0.53 0.53 0.61 0.70 0.74 0.75 0.78 0.80 0.76 0.72 0.71 0.68 0.65 0.64 0.68 0.76 0.82 0.79 0.80 1.09 1.44 1.57 1.53 1.02 1.02
0.37 0.50 0.66 0.51 0.40 0.38 0.42 0.52 0.47 0.41 0.42 0.43 0.41 0.39 0.38 0.40 0.42 0.45 0.52 0.59 0.65 0.69 0.69 0.72 0.72 0.66 0.58 0.53 0.50 0.50 0.56 0.63 0.81 0.92 0.86 0.71 0.83 1.05 1.34 1.40 1.48 0.91 0.89
0.20 0.35 0.45 0.46 0.40 0.39 0.43 0.47 0.46 0.41 0.37 0.42 0.43 0.44 0.46 0.47 0.44 0.45 0.52 0.55 0.61 0.62 0.58 0.60 0.61 0.55 0.43 0.38 0.38 0.44 0.54 0.74 0.96 1.11 1.22 0.69 0.57 1.03 1.30 1.30 1.09 0.77 0.78
0.13 0.24 0.25 0.29 0.29 0.28 0.29 0.32 0.40 0.41 0.39 0.42 0.48 0.56 0.60 0.62 0.56 0.53 0.54 0.54 0.53 0.50 0.46 0.51 0.51 0.42 0.36 0.33 0.36 0.45 0.56 0.81 1.06 1.43 1.41 0.75 0.44 0.77 1.07 0.96 0.83 0.74 0.76
0.15 0.21 0.26 0.23 0.21 0.23 0.23 0.25 0.36 0.44 0.45 0.45 0.50 0.56 0.62 0.72 0.68 0.61 0.57 0.57 0.51 0.47 0.42 0.41 0.38 0.32 0.29 0.32 0.38 0.46 0.58 0.78 1.08 1.28 1.03 0.90 0.82 0.78 0.80 0.80 0.81 0.81 0.79
0.18 0.19 0.20 0.24 0.23 0.23 0.22 0.24 0.30 0.41 0.44 0.45 0.47 0.54 0.57 0.66 0.69 0.61 0.54 0.55 0.51 0.44 0.37 0.30 0.27 0.28 0.29 0.34 0.42 0.48 0.60 0.83 0.95 0.75 0.68 0.72 0.78 0.87 0.77 0.92 1.02 1.00 0.90
0.24 0.22 0.19 0.23 0.23 0.24 0.23 0.25 0.28 0.32 0.38 0.38 0.36 0.41 0.48 0.54 0.62 0.57 0.54 0.52 0.45 0.39 0.33 0.27 0.27 0.31 0.36 0.39 0.44 0.50 0.65 0.88 0.81 0.56 0.69 0.80 0.70 0.71 0.80 1.04 1.24 1.21 1.04
0.43 0.31 0.28 0.29 0.26 0.24 0.24 0.26 0.28 0.29 0.30 0.33 0.30 0.33 0.40 0.45 0.48 0.50 0.48 0.45 0.38 0.33 0.30 0.28 0.31 0.35 0.39 0.41 0.43 0.51 0.66 0.76 0.63 0.58 0.60 0.59 0.54 0.63 0.84 1.06 1.24 1.32 1.16
0.68 0.50 0.42 0.36 0.29 0.29 0.30 0.30 0.28 0.28 0.31 0.32 0.31 0.34 0.43 0.44 0.48 0.50 0.48 0.43 0.42 0.39 0.33 0.29 0.30 0.33 0.36 0.37 0.39 0.47 0.61 0.76 0.68 0.72 0.55 0.55 0.68 0.80 1.01 1.19 1.23 1.22 1.14
0.96 0.74 0.58 0.55 0.51 0.43 0.35 0.35 0.36 0.35 0.37 0.38 0.38 0.42 0.50 0.50 0.50 0.55 0.51 0.51 0.53 0.53 0.46 0.44 0.37 0.34 0.36 0.37 0.41 0.51 0.63 0.59 0.55 0.60 0.58 0.52 0.76 0.94 1.11 1.19 1.22 1.16 1.14
1.43 1.02 0.80 0.72 0.69 0.66 0.54 0.48 0.53 0.54 0.55 0.54 0.60 0.65 0.75 0.77 0.70 0.83 0.76 0.81 0.74 0.76 0.74 0.72 0.63 0.55 0.51 0.48 0.59 0.74 0.64 0.63 0.81 0.85 0.70 0.71 0.86 1.07 1.23 1.23 1.23 1.21 1.20
1.61 1.18 1.02 0.84 0.74 0.75 0.85 1.00 0.99 0.84 0.88 0.95 1.08 1.16 1.40 1.39 1.31 1.04 1.07 1.22 1.27 1.38 1.32 1.28 1.22 0.96 0.82 0.75 1.17 1.39 0.76 0.66 0.79 0.91 0.82 0.78 1.00 1.31 1.47 1.36 1.25 1.20 1.12
1.53 1.28 1.16 1.13 1.06 0.96 1.10 1.25 1.29 1.22 1.28 1.31 1.36 1.46 1.56 1.39 1.30 1.21 1.27 1.49 1.60 1.72 1.67 1.83 1.89 1.57 1.52 1.52 1.69 1.60 1.04 0.99 0.95 0.86 0.92 1.03 1.15 1.44 1.71 1.54 1.33 1.23 1.12
1.98 1.69 1.52 1.54 1.39 1.29 1.27 1.39 1.41 1.41 1.36 1.40 1.55 1.49 1.61 1.71 1.66 1.62 1.73 1.74 1.83 1.99 2.32 2.15 2.32 2.20 2.03 1.90 1.86 1.71 1.43 1.41 1.37 1.30 1.52 1.33 1.24 1.52 1.85 1.71 1.49 1.38 1.28
2.52 2.43 2.13 1.88 1.68 1.62 1.73 1.70 1.61 1.62 1.60 1.69 1.85 1.80 1.81 1.98 2.01 2.04 2.00 2.01 1.85 2.02 2.37 2.48 2.36 2.57 2.62 2.41 2.17 1.95 1.85 1.68 1.55 1.56 1.66 1.55 1.44 1.53 1.79 1.89 1.75 1.64 1.51
2.72 2.80 2.59 2.36 2.18 2.14 2.25 2.29 2.14 1.93 2.04 2.11 2.09 1.96 2.00 2.22 2.44 2.48 2.32 2.26 2.12 2.13 2.34 2.47 2.50 2.99 2.88 2.73 2.28 2.04 1.96 1.90 1.76 1.73 1.78 1.86 1.56 1.42 1.55 1.84 2.00 1.97 1.84
3.10 3.02 2.95 2.87 2.75 2.77 2.71 2.64 2.44 2.35 2.20 2.21 2.27 2.31 2.28 2.29 2.53 2.59 2.58 2.44 2.36 2.31 2.46 2.51 2.71 2.97 2.70 2.58 2.31 2.18 2.07 1.94 1.75 1.73 1.91 2.10 1.88 1.59 1.43 1.55 1.86 2.02 2.06
3.45 3.42 3.39 3.22 3.22 3.20 3.13 2.99 2.82 2.68 2.39 2.19 2.20 2.35 2.37 2.39 2.52 2.62 2.47 2.36 2.56 2.64 2.72 2.88 2.96 2.99 2.86 2.76 2.56 2.24 2.05 1.99 1.60 1.55 1.60 1.69 1.86 1.63 1.69 1.78 1.92 1.99 2.16
3.95 4.06 4.02 3.96 3.74 3.48 3.39 3.36 3.38 3.29 2.95 2.58 2.47 2.46 2.46 2.32 2.35 2.53 2.42 2.50 2.66 2.76 2.80 2.57 2.96 2.95 2.97 2.89 2.39 2.13 1.85 1.73 1.61 1.35 1.33 1.29 1.43 1.47 1.54 1.64 1.78 1.77 2.07
4.21 4.57 4.43 4.31 4.26 4.18 4.06 3.79 3.76 3.53 3.21 3.00 2.85 2.83 2.64 2.49 2.47 2.65 2.51 2.57 2.69 2.81 2.83 2.84 3.04 3.01 2.85 2.82 2.25 1.98 1.71 1.39 1.40 1.34 1.15 1.17 1.20 1.10 1.19 1.41 1.73 1.47 1.81
4.44 4.77 4.85 4.97 4.85 4.58 4.16 3.73 3.53 3.43 3.38 3.17 2.92 2.68 2.59 2.53 2.63 2.87 2.71 2.85 2.82 2.68 2.69 2.84 3.02 2.85 2.62 2.74 2.63 2.05 1.53 1.22 1.21 1.16 1.18 1.23 1.15 1.13 1.28 1.59 1.71 1.60 1.49
4.04 4.47 4.60 4.35 4.22 4.07 3.81 3.67 3.64 3.81 3.49 3.16 2.95 2.71 2.51 2.49 2.58 2.52 2.63 2.51 2.56 2.70 2.69 2.71 2.91 2.75 2.37 2.50 2.59 2.45 1.81 1.51 1.19 0.94 1.11 1.14 1.13 1.29 1.34 1.43 1.71 1.90 1.74
3.03 3.29 3.46 3.61 3.50 3.38 3.35 3.33 3.36 3.53 3.26 2.94 2.72 2.59 2.36 2.25 2.22 2.24 2.26 2.35 2.61 2.64 2.63 2.69 2.69 2.55 2.25 2.22 2.35 2.49 2.01 1.60 1.30 0.92 0.87 1.01 1.22 1.41 1.38 1.51 1.60 1.78 1.85
2.67 2.84 2.92 2.94 3.03 3.04 3.08 2.97 2.80 2.69 2.55 2.41 2.39 2.33 2.31 2.20 2.10 2.05 2.05 2.13 2.22 2.22 2.30 2.12 2.22 2.34 2.38 2.18 2.23 2.18 2.00 1.83 1.71 1.29 1.01 0.97 1.14 1.25 1.35 1.32 1.34 1.46 1.73
2.06 2.29 2.46 2.56 2.62 2.73 2.76 2.64 2.60 2.41 2.38 2.36 2.29 2.27 2.18 2.10 2.04 1.97 1.91 1.89 1.84 1.85 1.99 1.97 2.06 2.09 2.09 2.05 2.07 2.12 2.08 1.98 1.85 1.74 1.47 1.28 1.20 1.01 1.06 1.16 1.22 1.31 1.57
1.78 1.95 2.11 2.25 2.28 2.40 2.44 2.42 2.36 2.30 2.29 2.22 2.15 2.12 2.06 2.03 1.91 1.84 1.83 1.84 1.77 1.77 1.82 1.88 1.95 1.90 1.92 1.98 1.97 1.99 2.04 1.96 1.93 1.98 1.69 1.54 1.42 1.10 1.07 1.04 1.07 1.14 1.38